| time (UTC) | temp C | wind direction | speed KPH | gust KPH | rain 1hr cm | rain 24hr cm | rain mn cm | humidity % | barometer mb |
| 20260506112544 | 17 | 218 | 1.6 | 6.4 | 0.00 | 0.00 | 0.00 | 91 | 1015.6 |
| 20260506112041 | 17 | 232 | 0.0 | 6.4 | 0.00 | 0.00 | 0.00 | 91 | 1015.4 |
| 20260506111551 | 17 | 250 | 1.6 | 4.8 | 0.00 | 0.00 | 0.00 | 91 | 1015.5 |
| 20260506111044 | 17 | 206 | 1.6 | 4.8 | 0.00 | 0.00 | 0.00 | 91 | 1015.7 |
| 20260506110540 | 17 | 197 | 1.6 | 6.4 | 0.00 | 0.00 | 0.00 | 91 | 1015.7 |
| 20260506110101 | 17 | 186 | 1.6 | 6.4 | 0.00 | 0.00 | 0.00 | 91 | 1015.7 |
| 20260506105544 | 17 | 202 | 1.6 | 6.4 | 0.00 | 0.00 | 0.00 | 91 | 1015.7 |
| 20260506105044 | 17 | 219 | 1.6 | 4.8 | 0.00 | 0.00 | 0.00 | 91 | 1015.6 |
| 20260506104550 | 17 | 257 | 1.6 | 4.8 | 0.00 | 0.00 | 0.00 | 91 | 1015.5 |
| 20260506104044 | 17 | 225 | 0.0 | 4.8 | 0.00 | 0.00 | 0.00 | 91 | 1015.2 |
| 20260506103543 | 17 | 247 | 3.2 | 4.8 | 0.00 | 0.00 | 0.00 | 91 | 1015.1 |
| 20260506103056 | 17 | 249 | 0.0 | 3.2 | 0.00 | 0.00 | 0.00 | 91 | 1015.2 |
| 20260506102544 | 17 | 232 | 1.6 | 6.4 | 0.00 | 0.00 | 0.00 | 91 | 1015.0 |
| 20260506102044 | 17 | 214 | 3.2 | 6.4 | 0.00 | 0.00 | 0.00 | 91 | 1014.9 |
| 20260506101602 | 17 | 168 | 3.2 | 6.4 | 0.00 | 0.00 | 0.00 | 91 | 1014.6 |
| 20260506101047 | 17 | 210 | 1.6 | 8.0 | 0.00 | 0.00 | 0.00 | 90 | 1014.5 |
| 20260506100544 | 17 | 213 | 3.2 | 8.0 | 0.00 | 0.00 | 0.00 | 90 | 1014.5 |
| 20260506100054 | 17 | 201 | 3.2 | 8.0 | 0.00 | 0.00 | 0.00 | 90 | 1014.6 |
| 20260506095543 | 17 | 259 | 3.2 | 8.0 | 0.00 | 0.00 | 0.00 | 90 | 1014.5 |
| 20260506095045 | 17 | 226 | 3.2 | 6.4 | 0.00 | 0.00 | 0.00 | 90 | 1014.5 |
| 20260506094621 | 17 | 149 | 1.6 | 4.8 | 0.00 | 0.00 | 0.00 | 90 | 1014.6 |
| 20260506094044 | 17 | 219 | 1.6 | 6.4 | 0.00 | 0.00 | 0.00 | 90 | 1014.6 |
| 20260506093545 | 17 | 214 | 1.6 | 6.4 | 0.00 | 0.00 | 0.00 | 90 | 1014.7 |
| 20260506093055 | 17 | 173 | 1.6 | 6.4 | 0.00 | 0.00 | 0.00 | 90 | 1014.6 |
| 20260506092542 | 17 | 173 | 1.6 | 6.4 | 0.00 | 0.00 | 0.00 | 90 | 1014.5 |
| 20260506092044 | 17 | 226 | 1.6 | 6.4 | 0.00 | 0.00 | 0.00 | 89 | 1014.5 |
| 20260506091554 | 17 | 234 | 1.6 | 6.4 | 0.00 | 0.00 | 0.00 | 89 | 1014.3 |
| 20260506091043 | 17 | 238 | 1.6 | 6.4 | 0.00 | 0.00 | 0.00 | 89 | 1014.3 |
| 20260506090543 | 17 | 239 | 1.6 | 4.8 | 0.00 | 0.00 | 0.00 | 88 | 1014.0 |
| 20260506090055 | 17 | 218 | 1.6 | 6.4 | 0.00 | 0.00 | 0.00 | 88 | 1014.1 |
| 20260506085542 | 17 | 194 | 1.6 | 6.4 | 0.00 | 0.00 | 0.00 | 88 | 1014.1 |
| 20260506085043 | 17 | 224 | 1.6 | 6.4 | 0.00 | 0.00 | 0.00 | 88 | 1013.9 |
| 20260506084555 | 17 | 244 | 1.6 | 4.8 | 0.00 | 0.00 | 0.00 | 88 | 1014.1 |
| 20260506084046 | 17 | 194 | 1.6 | 4.8 | 0.00 | 0.00 | 0.00 | 87 | 1014.2 |
| 20260506083543 | 17 | 195 | 1.6 | 4.8 | 0.00 | 0.00 | 0.00 | 87 | 1014.1 |
| 20260506083049 | 17 | 206 | 1.6 | 4.8 | 0.00 | 0.00 | 0.00 | 87 | 1013.9 |
| 20260506082548 | 17 | 251 | 1.6 | 6.4 | 0.00 | 0.00 | 0.00 | 87 | 1014.1 |
| 20260506082043 | 17 | 255 | 3.2 | 6.4 | 0.00 | 0.00 | 0.00 | 86 | 1014.1 |
| 20260506081551 | 17 | 236 | 1.6 | 6.4 | 0.00 | 0.00 | 0.00 | 86 | 1014.2 |
| 20260506081044 | 17 | 163 | 1.6 | 6.4 | 0.00 | 0.00 | 0.00 | 86 | 1014.2 |
| 20260506080544 | 17 | 203 | 1.6 | 3.2 | 0.00 | 0.00 | 0.00 | 86 | 1014.3 |
| 20260506073049 | 17 | 0 | 0.0 | 1.6 | 0.00 | 0.00 | 0.00 | 83 | 1014.5 |
| 20260506072543 | 17 | 0 | 0.0 | 1.6 | 0.00 | 0.00 | 0.00 | 83 | 1014.5 |
| 20260506072042 | 17 | 0 | 0.0 | 0.0 | 0.00 | 0.00 | 0.00 | 83 | 1014.5 |
| 20260506071557 | 17 | 0 | 0.0 | 1.6 | 0.00 | 0.00 | 0.00 | 82 | 1014.6 |
| 20260506071043 | 17 | 0 | 0.0 | 1.6 | 0.00 | 0.00 | 0.00 | 82 | 1014.7 |
| 20260506070543 | 17 | 0 | 0.0 | 1.6 | 0.00 | 0.00 | 0.00 | 82 | 1014.9 |
| 20260506070103 | 17 | 237 | 0.0 | 1.6 | 0.00 | 0.00 | 0.00 | 82 | 1014.9 |
| 20260506062044 | 17 | 0 | 0.0 | 0.0 | 0.00 | 0.00 | 0.00 | 78 | 1015.1 |
| 20260506061551 | 17 | 0 | 0.0 | 0.0 | 0.00 | 0.00 | 0.00 | 77 | 1015.0 |
| 20260506061043 | 18 | 0 | 0.0 | 1.6 | 0.00 | 0.00 | 0.00 | 77 | 1015.0 |
| 20260506060543 | 18 | 0 | 0.0 | 1.6 | 0.00 | 0.00 | 0.00 | 76 | 1015.1 |
| 20260506051044 | 18 | 200 | 0.0 | 4.8 | 0.00 | 0.00 | 0.00 | 71 | 1014.7 |
| 20260506050544 | 18 | 233 | 1.6 | 9.7 | 0.00 | 0.00 | 0.00 | 71 | 1014.7 |
| 20260506045043 | 18 | 249 | 3.2 | 9.7 | 0.00 | 0.00 | 0.00 | 70 | 1014.7 |
| 20260506044553 | 18 | 220 | 1.6 | 6.4 | 0.00 | 0.00 | 0.00 | 70 | 1014.9 |
| 20260506044047 | 18 | 218 | 0.0 | 6.4 | 0.00 | 0.00 | 0.00 | 69 | 1015.0 |
| 20260506043542 | 18 | 162 | 0.0 | 3.2 | 0.00 | 0.00 | 0.00 | 68 | 1015.1 |
| 20260506043048 | 18 | 0 | 0.0 | 1.6 | 0.00 | 0.00 | 0.00 | 67 | 1015.2 |
| 20260506042543 | 18 | 0 | 0.0 | 1.6 | 0.00 | 0.00 | 0.00 | 66 | 1015.2 |
| 20260506042042 | 18 | 245 | 0.0 | 3.2 | 0.00 | 0.00 | 0.00 | 66 | 1015.3 |
| 20260506041550 | 18 | 240 | 0.0 | 4.8 | 0.00 | 0.00 | 0.00 | 65 | 1015.2 |
| 20260506041043 | 18 | 0 | 0.0 | 4.8 | 0.00 | 0.00 | 0.00 | 65 | 1015.0 |
| 20260506040543 | 18 | 225 | 1.6 | 6.4 | 0.00 | 0.00 | 0.00 | 65 | 1014.8 |
| 20260506040100 | 18 | 0 | 1.6 | 6.4 | 0.00 | 0.00 | 0.00 | 65 | 1014.8 |
| 20260506035543 | 19 | 270 | 1.6 | 4.8 | 0.00 | 0.00 | 0.00 | 65 | 1014.9 |
| 20260506035043 | 18 | 244 | 1.6 | 4.8 | 0.00 | 0.00 | 0.00 | 65 | 1014.9 |
| 20260506034604 | 18 | 245 | 0.0 | 4.8 | 0.00 | 0.00 | 0.00 | 64 | 1014.6 |
| 20260506034043 | 18 | 0 | 0.0 | 4.8 | 0.00 | 0.00 | 0.00 | 64 | 1014.7 |
| 20260506033543 | 18 | 0 | 1.6 | 4.8 | 0.00 | 0.00 | 0.00 | 65 | 1015.1 |
| 20260506033052 | 18 | 0 | 0.0 | 1.6 | 0.00 | 0.00 | 0.00 | 64 | 1015.1 |
| 20260506032543 | 18 | 0 | 0.0 | 3.2 | 0.00 | 0.00 | 0.00 | 63 | 1015.4 |
| 20260506032043 | 19 | 0 | 0.0 | 3.2 | 0.00 | 0.00 | 0.00 | 63 | 1015.4 |
| 20260506031600 | 18 | 199 | 0.0 | 3.2 | 0.00 | 0.00 | 0.00 | 63 | 1015.4 |
| 20260506031046 | 18 | 0 | 0.0 | 3.2 | 0.00 | 0.00 | 0.00 | 64 | 1015.1 |
| 20260506030544 | 18 | 262 | 0.0 | 109.4 | 0.00 | 0.00 | 0.00 | 64 | 1014.8 |
| 20260506030051 | 18 | 0 | 1.6 | 109.4 | 0.00 | 0.00 | 0.00 | 65 | 1014.9 |
| 20260506025543 | 19 | 0 | 0.0 | 3.2 | 0.00 | 0.00 | 0.00 | 63 | 1015.0 |
| 20260506025043 | 19 | 0 | 0.0 | 1.6 | 0.00 | 0.00 | 0.00 | 63 | 1015.2 |
| 20260506024552 | 19 | 0 | 0.0 | 1.6 | 0.00 | 0.00 | 0.00 | 61 | 1015.0 |
| 20260506024043 | 19 | 260 | 0.0 | 1.6 | 0.00 | 0.00 | 0.00 | 61 | 1015.2 |
| 20260506023543 | 19 | 0 | 0.0 | 1.6 | 0.00 | 0.00 | 0.00 | 61 | 1014.9 |
| 20260506023053 | 19 | 264 | 0.0 | 4.8 | 0.00 | 0.00 | 0.00 | 60 | 1015.0 |
| 20260506022542 | 19 | 264 | 0.0 | 4.8 | 0.00 | 0.00 | 0.00 | 60 | 1015.0 |
| 20260506022044 | 19 | 265 | 0.0 | 1.6 | 0.00 | 0.00 | 0.00 | 61 | 1014.9 |
| 20260506021558 | 19 | 246 | 0.0 | 1.6 | 0.00 | 0.00 | 0.00 | 61 | 1014.8 |
| 20260506021044 | 19 | 0 | 0.0 | 1.6 | 0.00 | 0.00 | 0.00 | 62 | 1014.8 |
| 20260506020543 | 19 | 0 | 0.0 | 1.6 | 0.00 | 0.00 | 0.00 | 61 | 1014.8 |
| 20260506020052 | 19 | 0 | 0.0 | 1.6 | 0.00 | 0.00 | 0.00 | 60 | 1015.0 |
| 20260506015544 | 19 | 0 | 0.0 | 1.6 | 0.00 | 0.00 | 0.00 | 59 | 1014.8 |
| 20260506015044 | 19 | 0 | 0.0 | 3.2 | 0.00 | 0.00 | 0.00 | 58 | 1014.7 |
| 20260506014550 | 19 | 0 | 0.0 | 3.2 | 0.00 | 0.00 | 0.00 | 57 | 1014.7 |
| 20260506014046 | 19 | 0 | 0.0 | 1.6 | 0.00 | 0.00 | 0.00 | 58 | 1014.7 |
| 20260506013543 | 19 | 0 | 0.0 | 1.6 | 0.00 | 0.00 | 0.00 | 57 | 1014.7 |
| 20260506013053 | 20 | 0 | 0.0 | 1.6 | 0.00 | 0.00 | 0.00 | 56 | 1014.6 |
| 20260506012543 | 19 | 0 | 0.0 | 1.6 | 0.00 | 0.00 | 0.00 | 57 | 1014.7 |
| 20260506012043 | 19 | 0 | 0.0 | 0.0 | 0.00 | 0.00 | 0.00 | 58 | 1014.7 |
| 20260506011548 | 20 | 0 | 0.0 | 0.0 | 0.00 | 0.00 | 0.00 | 56 | 1014.6 |
| 20260506011043 | 20 | 0 | 0.0 | 0.0 | 0.00 | 0.00 | 0.00 | 56 | 1014.7 |
| 20260506010544 | 20 | 0 | 0.0 | 0.0 | 0.00 | 0.00 | 0.00 | 55 | 1014.6 |
| 20260506010046 | 20 | 0 | 0.0 | 0.0 | 0.00 | 0.00 | 0.00 | 54 | 1014.5 |
| 20260506005543 | 20 | 0 | 0.0 | 0.0 | 0.00 | 0.00 | 0.00 | 54 | 1014.5 |
| 20260506005043 | 20 | 0 | 0.0 | 0.0 | 0.00 | 0.00 | 0.00 | 53 | 1014.6 |
| 20260506004549 | 20 | 0 | 0.0 | 0.0 | 0.00 | 0.00 | 0.00 | 52 | 1014.6 |
| 20260506004044 | 21 | 0 | 0.0 | 0.0 | 0.00 | 0.00 | 0.00 | 51 | 1014.6 |
| 20260506003543 | 21 | 0 | 0.0 | 0.0 | 0.00 | 0.00 | 0.00 | 51 | 1014.6 |
| 20260506003053 | 21 | 0 | 0.0 | 0.0 | 0.00 | 0.00 | 0.00 | 50 | 1014.8 |
| 20260506002544 | 21 | 0 | 0.0 | 0.0 | 0.00 | 0.00 | 0.00 | 50 | 1014.9 |
| 20260506002043 | 21 | 0 | 0.0 | 0.0 | 0.00 | 0.00 | 0.00 | 49 | 1015.1 |
| 20260506001554 | 22 | 0 | 0.0 | 0.0 | 0.00 | 0.00 | 0.00 | 48 | 1015.0 |
| 20260506001043 | 22 | 0 | 0.0 | 0.0 | 0.00 | 0.00 | 0.00 | 48 | 1015.1 |
| 20260506000544 | 22 | 0 | 0.0 | 0.0 | 0.00 | 0.00 | 0.00 | 48 | 1015.2 |
| 20260506000053 | 22 | 0 | 0.0 | 1.6 | 0.00 | 0.00 | 0.00 | 47 | 1015.0 |
| 20260505235544 | 22 | 0 | 0.0 | 3.2 | 0.00 | 0.00 | 0.00 | 46 | 1015.1 |
| 20260505235044 | 23 | 0 | 0.0 | 4.8 | 0.00 | 0.00 | 0.00 | 45 | 1014.9 |
| 20260505234557 | 23 | 207 | 0.0 | 4.8 | 0.00 | 0.00 | 0.00 | 45 | 1014.9 |
| 20260505234043 | 23 | 210 | 1.6 | 12.9 | 0.00 | 0.00 | 0.00 | 45 | 1015.0 |
| 20260505233543 | 23 | 234 | 1.6 | 12.9 | 0.00 | 0.00 | 0.00 | 44 | 1015.0 |
| 20260505233108 | 23 | 201 | 3.2 | 12.9 | 0.00 | 0.00 | 0.00 | 42 | 1015.0 |
| 20260505232543 | 23 | 208 | 1.6 | 8.0 | 0.00 | 0.00 | 0.00 | 42 | 1014.9 |
| 20260505232045 | 23 | 233 | 1.6 | 8.0 | 0.00 | 0.00 | 0.00 | 43 | 1014.9 |
| 20260505231556 | 23 | 213 | 4.8 | 12.9 | 0.00 | 0.00 | 0.00 | 41 | 1015.0 |
| 20260505231043 | 24 | 226 | 6.4 | 14.5 | 0.00 | 0.00 | 0.00 | 41 | 1015.0 |
| 20260505230548 | 24 | 215 | 4.8 | 17.7 | 0.00 | 0.00 | 0.00 | 40 | 1014.9 |
| 20260505230054 | 25 | 238 | 9.7 | 17.7 | 0.00 | 0.00 | 0.00 | 39 | 1014.9 |
| 20260505225544 | 25 | 259 | 3.2 | 11.3 | 0.00 | 0.00 | 0.00 | 40 | 1014.8 |
| 20260505225042 | 25 | 231 | 4.8 | 11.3 | 0.00 | 0.00 | 0.00 | 39 | 1014.7 |
| 20260505224552 | 25 | 264 | 3.2 | 11.3 | 0.00 | 0.00 | 0.00 | 42 | 1014.6 |
| 20260505224045 | 25 | 251 | 3.2 | 11.3 | 0.00 | 0.00 | 0.00 | 43 | 1014.6 |
| 20260505223541 | 25 | 250 | 3.2 | 16.1 | 0.00 | 0.00 | 0.00 | 43 | 1014.6 |
| 20260505223054 | 25 | 139 | 3.2 | 16.1 | 0.00 | 0.00 | 0.00 | 42 | 1014.4 |
| 20260505222541 | 25 | 248 | 1.6 | 17.7 | 0.00 | 0.00 | 0.00 | 43 | 1014.5 |
| 20260505222042 | 25 | 219 | 6.4 | 17.7 | 0.00 | 0.00 | 0.00 | 43 | 1014.4 |
| 20260505221552 | 25 | 253 | 6.4 | 12.9 | 0.00 | 0.00 | 0.00 | 41 | 1014.6 |
| 20260505221041 | 25 | 253 | 4.8 | 16.1 | 0.00 | 0.00 | 0.00 | 42 | 1014.5 |
| 20260505220543 | 25 | 167 | 6.4 | 17.7 | 0.00 | 0.00 | 0.00 | 41 | 1014.4 |
| 20260505220053 | 25 | 211 | 8.0 | 17.7 | 0.00 | 0.00 | 0.00 | 40 | 1014.6 |
| 20260505215543 | 25 | 274 | 8.0 | 17.7 | 0.00 | 0.00 | 0.00 | 39 | 1014.6 |
| 20260505215044 | 25 | 264 | 8.0 | 12.9 | 0.00 | 0.00 | 0.00 | 39 | 1014.5 |
| 20260505214555 | 25 | 269 | 6.4 | 12.9 | 0.00 | 0.00 | 0.00 | 40 | 1014.4 |
| 20260505214041 | 25 | 207 | 1.6 | 14.5 | 0.00 | 0.00 | 0.00 | 40 | 1014.4 |
| 20260505213541 | 25 | 186 | 6.4 | 14.5 | 0.00 | 0.00 | 0.00 | 40 | 1014.5 |
| 20260505213052 | 25 | 259 | 4.8 | 16.1 | 0.00 | 0.00 | 0.00 | 40 | 1014.6 |
| 20260505212542 | 25 | 247 | 8.0 | 17.7 | 0.00 | 0.00 | 0.00 | 40 | 1014.5 |
| 20260505212042 | 25 | 244 | 8.0 | 17.7 | 0.00 | 0.00 | 0.00 | 39 | 1014.9 |
| 20260505211606 | 25 | 152 | 4.8 | 17.7 | 0.00 | 0.00 | 0.00 | 40 | 1014.9 |
| 20260505211045 | 25 | 181 | 9.7 | 17.7 | 0.00 | 0.00 | 0.00 | 39 | 1014.9 |
| 20260505210541 | 25 | 228 | 6.4 | 16.1 | 0.00 | 0.00 | 0.00 | 38 | 1014.8 |
| 20260505210050 | 25 | 248 | 6.4 | 16.1 | 0.00 | 0.00 | 0.00 | 39 | 1014.9 |
| 20260505205542 | 25 | 214 | 8.0 | 16.1 | 0.00 | 0.00 | 0.00 | 40 | 1014.9 |
| 20260505205041 | 26 | 181 | 8.0 | 16.1 | 0.00 | 0.00 | 0.00 | 38 | 1015.0 |
| 20260505204548 | 26 | 308 | 6.4 | 17.7 | 0.00 | 0.00 | 0.00 | 37 | 1015.0 |
| 20260505204041 | 25 | 217 | 4.8 | 19.3 | 0.00 | 0.00 | 0.00 | 41 | 1015.1 |
| 20260505203546 | 25 | 243 | 9.7 | 22.5 | 0.00 | 0.00 | 0.00 | 38 | 1015.2 |
| 20260505203052 | 26 | 230 | 4.8 | 22.5 | 0.00 | 0.00 | 0.00 | 39 | 1015.3 |
| 20260505202546 | 26 | 232 | 8.0 | 22.5 | 0.00 | 0.00 | 0.00 | 42 | 1015.2 |
| 20260505202047 | 26 | 157 | 6.4 | 14.5 | 0.00 | 0.00 | 0.00 | 37 | 1015.2 |
| 20260505201558 | 26 | 240 | 1.6 | 8.0 | 0.00 | 0.00 | 0.00 | 40 | 1015.4 |
| 20260505201042 | 26 | 34 | 1.6 | 12.9 | 0.00 | 0.00 | 0.00 | 39 | 1015.4 |
| 20260505200541 | 26 | 288 | 4.8 | 12.9 | 0.00 | 0.00 | 0.00 | 41 | 1015.4 |
| 20260505200055 | 26 | 197 | 8.0 | 12.9 | 0.00 | 0.00 | 0.00 | 39 | 1015.4 |
| 20260505195541 | 26 | 235 | 4.8 | 22.5 | 0.00 | 0.00 | 0.00 | 40 | 1015.5 |
| 20260505195041 | 26 | 293 | 8.0 | 22.5 | 0.00 | 0.00 | 0.00 | 38 | 1015.5 |
| 20260505194607 | 26 | 127 | 4.8 | 11.3 | 0.00 | 0.00 | 0.00 | 43 | 1015.6 |
| 20260505194042 | 26 | 241 | 3.2 | 14.5 | 0.00 | 0.00 | 0.00 | 40 | 1015.6 |
| 20260505193547 | 26 | 317 | 4.8 | 16.1 | 0.00 | 0.00 | 0.00 | 38 | 1015.7 |
| 20260505193054 | 26 | 146 | 3.2 | 16.1 | 0.00 | 0.00 | 0.00 | 39 | 1015.7 |
| 20260505192543 | 26 | 236 | 6.4 | 14.5 | 0.00 | 0.00 | 0.00 | 39 | 1015.8 |
| 20260505192043 | 26 | 58 | 6.4 | 14.5 | 0.00 | 0.00 | 0.00 | 44 | 1015.8 |
| 20260505191556 | 26 | 245 | 4.8 | 11.3 | 0.00 | 0.00 | 0.00 | 39 | 1015.9 |
| 20260505191042 | 26 | 100 | 1.6 | 9.7 | 0.00 | 0.00 | 0.00 | 41 | 1015.9 |
| 20260505190544 | 26 | 18 | 3.2 | 16.1 | 0.00 | 0.00 | 0.00 | 43 | 1015.9 |
| 20260505190057 | 25 | 18 | 3.2 | 19.3 | 0.00 | 0.00 | 0.00 | 42 | 1015.9 |
| 20260505185544 | 25 | 270 | 8.0 | 19.3 | 0.00 | 0.00 | 0.00 | 41 | 1015.9 |
| 20260505185044 | 25 | 241 | 6.4 | 16.1 | 0.00 | 0.00 | 0.00 | 40 | 1016.1 |
| 20260505184550 | 25 | 217 | 4.8 | 16.1 | 0.00 | 0.00 | 0.00 | 40 | 1016.3 |
| 20260505184044 | 25 | 267 | 4.8 | 16.1 | 0.00 | 0.00 | 0.00 | 42 | 1016.3 |
| 20260505183543 | 25 | 259 | 6.4 | 14.5 | 0.00 | 0.00 | 0.00 | 41 | 1016.5 |
| 20260505183050 | 25 | 214 | 4.8 | 14.5 | 0.00 | 0.00 | 0.00 | 42 | 1016.5 |
| 20260505182542 | 24 | 247 | 3.2 | 12.9 | 0.00 | 0.00 | 0.00 | 44 | 1016.5 |
| 20260505182045 | 24 | 254 | 6.4 | 16.1 | 0.00 | 0.00 | 0.00 | 45 | 1016.7 |
| 20260505181557 | 24 | 231 | 6.4 | 16.1 | 0.00 | 0.00 | 0.00 | 43 | 1016.7 |
| 20260505181045 | 24 | 252 | 3.2 | 16.1 | 0.00 | 0.00 | 0.00 | 43 | 1016.8 |
| 20260505180544 | 24 | 274 | 4.8 | 14.5 | 0.00 | 0.00 | 0.00 | 44 | 1017.0 |
| 20260505180058 | 24 | 238 | 6.4 | 12.9 | 0.00 | 0.00 | 0.00 | 44 | 1017.1 |
| 20260505175546 | 24 | 243 | 6.4 | 12.9 | 0.00 | 0.00 | 0.00 | 44 | 1017.0 |
| 20260505175043 | 24 | 299 | 6.4 | 12.9 | 0.00 | 0.00 | 0.00 | 43 | 1017.1 |
| 20260505174602 | 24 | 222 | 4.8 | 12.9 | 0.00 | 0.00 | 0.00 | 45 | 1017.2 |
| 20260505174044 | 24 | 323 | 1.6 | 12.9 | 0.00 | 0.00 | 0.00 | 46 | 1017.3 |
| 20260505173545 | 23 | 174 | 6.4 | 14.5 | 0.00 | 0.00 | 0.00 | 47 | 1017.4 |
| 20260505173049 | 23 | 193 | 6.4 | 14.5 | 0.00 | 0.00 | 0.00 | 46 | 1017.4 |
| 20260505172543 | 24 | 245 | 3.2 | 11.3 | 0.00 | 0.00 | 0.00 | 45 | 1017.4 |
| 20260505172043 | 23 | 288 | 1.6 | 20.9 | 0.00 | 0.00 | 0.00 | 49 | 1017.3 |
| 20260505171552 | 23 | 248 | 6.4 | 20.9 | 0.00 | 0.00 | 0.00 | 47 | 1017.4 |
| 20260505171045 | 23 | 267 | 6.4 | 14.5 | 0.00 | 0.00 | 0.00 | 47 | 1017.4 |
| 20260505170545 | 24 | 240 | 1.6 | 12.9 | 0.00 | 0.00 | 0.00 | 47 | 1017.5 |
| 20260505170048 | 23 | 158 | 3.2 | 12.9 | 0.00 | 0.00 | 0.00 | 54 | 1017.5 |
| 20260505165543 | 23 | 236 | 4.8 | 11.3 | 0.00 | 0.00 | 0.00 | 49 | 1017.6 |
| 20260505165044 | 23 | 285 | 3.2 | 12.9 | 0.00 | 0.00 | 0.00 | 50 | 1017.5 |
| 20260505164615 | 23 | 218 | 1.6 | 22.5 | 0.00 | 0.00 | 0.00 | 52 | 1017.5 |
| 20260505164047 | 22 | 222 | 6.4 | 22.5 | 0.00 | 0.00 | 0.00 | 53 | 1017.6 |
| 20260505163543 | 22 | 205 | 8.0 | 22.5 | 0.00 | 0.00 | 0.00 | 52 | 1017.6 |
| 20260505163054 | 22 | 203 | 6.4 | 14.5 | 0.00 | 0.00 | 0.00 | 53 | 1017.6 |
| 20260505162544 | 22 | 218 | 4.8 | 20.9 | 0.00 | 0.00 | 0.00 | 52 | 1017.6 |
| 20260505162044 | 22 | 271 | 6.4 | 20.9 | 0.00 | 0.00 | 0.00 | 53 | 1017.6 |
| 20260505161547 | 22 | 228 | 8.0 | 17.7 | 0.00 | 0.00 | 0.00 | 52 | 1017.6 |
| 20260505161044 | 22 | 176 | 6.4 | 19.3 | 0.00 | 0.00 | 0.00 | 53 | 1017.6 |
| 20260505160545 | 22 | 197 | 6.4 | 19.3 | 0.00 | 0.00 | 0.00 | 53 | 1017.6 |
| 20260505153050 | 21 | 221 | 4.8 | 12.9 | 0.00 | 0.00 | 0.00 | 53 | 1018.0 |
| 20260505152543 | 21 | 51 | 3.2 | 14.5 | 0.00 | 0.00 | 0.00 | 55 | 1018.0 |
| 20260505152040 | 21 | 319 | 3.2 | 14.5 | 0.00 | 0.00 | 0.00 | 56 | 1018.0 |
| 20260505151551 | 21 | 212 | 6.4 | 14.5 | 0.00 | 0.00 | 0.00 | 56 | 1018.0 |
| 20260505151044 | 21 | 269 | 4.8 | 12.9 | 0.00 | 0.00 | 0.00 | 60 | 1017.8 |
| 20260505150544 | 20 | 212 | 6.4 | 12.9 | 0.00 | 0.00 | 0.00 | 59 | 1017.8 |
| 20260505140544 | 18 | 186 | 0.0 | 6.4 | 0.00 | 0.00 | 0.00 | 67 | 1017.5 |
| 20260505130108 | 13 | 0 | 0.0 | 1.6 | 0.00 | 0.00 | 0.00 | 85 | 1016.5 |
| 20260505124602 | 12 | 0 | 0.0 | 0.0 | 0.00 | 0.00 | 0.00 | 91 | 1016.4 |
| 20260505124044 | 12 | 0 | 0.0 | 0.0 | 0.00 | 0.00 | 0.00 | 91 | 1016.4 |
| 20260505123543 | 12 | 0 | 0.0 | 0.0 | 0.00 | 0.00 | 0.00 | 91 | 1016.4 |
| 20260505123050 | 11 | 0 | 0.0 | 0.0 | 0.00 | 0.00 | 0.00 | 91 | 1016.4 |
| 20260505122543 | 11 | 0 | 0.0 | 0.0 | 0.00 | 0.00 | 0.00 | 91 | 1016.4 |
| 20260505122044 | 11 | 0 | 0.0 | 0.0 | 0.00 | 0.00 | 0.00 | 92 | 1016.2 |
| 20260505121550 | 11 | 0 | 0.0 | 0.0 | 0.00 | 0.00 | 0.00 | 91 | 1016.2 |
| 20260505121044 | 11 | 0 | 0.0 | 0.0 | 0.00 | 0.00 | 0.00 | 91 | 1016.3 |
| 20260505120544 | 11 | 0 | 0.0 | 0.0 | 0.00 | 0.00 | 0.00 | 91 | 1016.2 |
| 20260505120106 | 10 | 0 | 0.0 | 0.0 | 0.00 | 0.00 | 0.00 | 90 | 1016.4 |
| 20260505115543 | 10 | 0 | 0.0 | 0.0 | 0.00 | 0.00 | 0.00 | 90 | 1016.3 |
| 20260505115048 | 10 | 0 | 0.0 | 0.0 | 0.00 | 0.00 | 0.00 | 88 | 1016.3 |
| 20260505114553 | 10 | 0 | 0.0 | 0.0 | 0.00 | 0.00 | 0.00 | 88 | 1016.3 |
| 20260505114041 | 11 | 0 | 0.0 | 0.0 | 0.00 | 0.00 | 0.00 | 88 | 1016.1 |
| 20260505113545 | 11 | 0 | 0.0 | 0.0 | 0.00 | 0.00 | 0.00 | 88 | 1015.9 |
| 20260505113055 | 11 | 0 | 0.0 | 0.0 | 0.00 | 0.00 | 0.00 | 88 | 1015.8 |